Notices

What's New in latest Release from April 7th, 2021:

- Updated Glossary, including Speed of Maximum Gust, and Total Hourly Precipitation

- Updated national and regional climate services offices contacts and prices information

- Addition of station inventory lists for 1981-2010, 1971-2000, and 1961-1990 Normals.

If you haven't already, please take our survey and provide feedback about our website: https://eccc.sondage-survey.ca/f/LanguageSelection.aspx?s=442ca660-fcf1-47c0-95a9-59707d6fd709

Hourly Data Report for March 03, 2021

SATURNA ISLAND CS
BRITISH COLUMBIA
Current Station Operator: ECCC - MSC

48°47'02.067" N
123°02'41.082" W
24.40 m
1017101
71473
WEZ

Download Data

Hourly Data (March 2021)
Hourly Data Report for March 3, 2021
TIME
LST
Temp Definition
°C
Dew Point Definition
°C
Rel Hum Definition
%
Precip. Amount Definition
mm

Wind Dir Definition
10's deg

Wind Spd Definition
km/h
Visibility Definition
km
Stn Press Definition
kPa
Hmdx Definition


Wind Chill Definition


Weather Definition


00:00 5.6 2.5 81 0.0 21 11   100.97     LegendNANA
01:00 6.2 2.7 78 0.0 17 8   100.95     LegendNANA
02:00 6.1 2.2 76 0.0 10 12   100.92     LegendNANA
03:00 6.0 1.9 75 0.0 9 10   100.89     LegendNANA
04:00 6.1 1.4 72 0.0 10 12   100.83     LegendNANA
05:00 5.5 2.0 78 0.0 10 16   100.78     LegendNANA
06:00 5.5 2.0 78 0.0 10 19   100.73     LegendNANA
07:00 5.5 2.0 78 0.0 10 17   100.72     LegendNANA
08:00 5.4 2.2 79 0.0 10 15   100.73     LegendNANA
09:00 6.1 2.9 80 0.0 12 10   100.74     LegendNANA
10:00 6.5 3.1 79 0.0 11 12   100.74     LegendNANA
11:00 7.1 3.8 79 0.0 9 13   100.73     LegendNANA
12:00 8.1 2.5 68 0.0 10 11   100.68     LegendNANA
13:00 9.2 2.5 63 0.0 14 6   100.62     LegendNANA
14:00 9.6 0.6 54 0.0 22 5   100.56     LegendNANA
15:00 9.4 2.1 60 0.0 29 3   100.55     LegendNANA
16:00 8.6 3.4 70 0.0 31 3   100.53     LegendNANA
17:00 8.1 3.6 73 0.0 31 4   100.51     LegendNANA
18:00 6.9 3.9 81 0.0 32 5   100.51     LegendNANA
19:00 6.0 3.3 83 0.0 30 4   100.54     LegendNANA
20:00 6.0 2.6 79 0.0 36 2   100.56     LegendNANA
21:00 6.2 3.6 84 0.0 20 4   100.61     LegendNANA
22:00 6.0 3.7 86 0.0 24 9   100.64     LegendNANA
23:00 5.8 3.8 87 0.0 25 8   100.68     LegendNANA

Notes on Data Quality.

Legend

  • E = Estimated
  • M = Missing
  • NA = Not Available*
  • [empty] = Indicates an unobserved value
Date modified: